Torna al catalogo

STARLINK-11313

AttivoComunicazioniVLEO
NORAD 61255·PAYLOAD·🇺🇸 United States

Lanciato Sep 25, 2024 da Vandenberg Space Force Base

Loading…

Prossimi Passaggi (prossime 24 ore)

TLE

AggiornatoSource: CelesTrak SupGP

Epoca: Sep 15, 2026, 03:24 UTC

1 61255C 24175N   26258.14215278 -.00075148  00000+0 -61872-3 0  2582
2 61255  53.1572 202.4076 0001193  84.8863 182.4464 15.69758588    18

Traccia STARLINK-11313 in tempo reale con AllMySat

Download on the App Store